Location: Gerlach
(40.6516°N, 119.3568°W)
Time: 14:57:29
(UTC-07:00)

A-11 Canister half - Pass Details

Date: 22 February 2024
Orbit: 1525 x 1683 km, 47.3° (Epoch: 21 April)

Event Time Altitude Azimuth Distance (km) Brightness Sun altitude
Rises 19:10:33 0° 193° (SSW) 4,791 11.7 -17.8°
Reaches altitude 10° 19:14:18 10° 182° (S) 3,783 11.0 -18.5°
Maximum altitude 19:21:48 27° 129° (SE) 2,659 9.8 -19.9°
Enters shadow 19:23:09 26° 116° (ESE) 2,697 9.7 -20.2°
